Location: Ramillies
(50.6368°N, 4.9145°E)
Time: 23:44:39
(UTC+02:00)

ISS - Visible Passes

Search period start: 28 March 2017 00:00
Search period end: 07 April 2017 00:00
Orbit: 399 x 409 km, 51.6° (Epoch: 29 March)

Date Brightness Start Highest point End Pass type
(mag) Time Alt. Az. Time Alt. Az. Time Alt. Az.
28 Mar -1.9 20:59:13 10° S 21:01:04 14° SE 21:01:55 13° ESE visible
28 Mar -1.4 22:33:48 10° WSW 22:34:38 16° SW 22:34:38 16° SW visible
29 Mar -3.3 21:41:39 10° SW 21:44:43 39° SSE 21:45:05 37° SE visible
30 Mar -2.6 20:49:43 10° SSW 20:52:29 26° SE 20:55:16 10° E visible
30 Mar -3.3 22:25:25 10° WSW 22:28:00 53° WSW 22:28:00 53° WSW visible
31 Mar -3.9 21:33:04 10° WSW 21:36:19 64° SSE 21:38:02 25° E visible
31 Mar -1.4 23:09:32 10° W 23:10:43 20° W 23:10:43 20° W visible
01 Apr -3.8 22:17:05 10° W 22:20:22 76° N 22:20:37 70° NE visible
02 Apr -3.9 21:24:39 10° WSW 21:27:56 89° N 21:30:25 16° ENE visible
02 Apr -2.0 23:01:13 10° W 23:03:03 31° WNW 23:03:03 31° WNW visible
03 Apr -3.7 22:08:45 10° W 22:12:01 72° N 22:12:46 48° ENE visible
03 Apr -0.6 23:45:16 10° WNW 23:45:25 11° WNW 23:45:25 11° WNW visible
04 Apr -3.7 21:16:16 10° W 21:19:32 74° N 21:22:25 13° E visible
04 Apr -2.6 22:52:49 10° WNW 22:55:04 41° W 22:55:04 41° W visible
05 Apr -3.8 22:00:20 10° WNW 22:03:37 80° N 22:04:41 40° E visible
05 Apr -0.8 23:36:53 10° W 23:37:19 13° W 23:37:19 13° W visible
06 Apr -3.7 21:07:51 10° W 21:11:07 72° N 21:14:15 11° E visible
06 Apr -3.0 22:44:21 10° WNW 22:46:54 45° WSW 22:46:54 45° WSW visible
